Location: Sevilla
(37.3933°N, 5.9839°W)
Time: 05:09:41
(UTC+02:00)

Transit 2A - Pass Details

Date: 26 June 2024
Orbit: 591 x 960 km, 66.7° (Epoch: 15 July)

Event Time Altitude Azimuth Distance (km) Brightness Sun altitude
Rises 14:55:14 0° 162° (SSE) 2,964 9.2 74.7°
Reaches altitude 10° 14:58:15 10° 140° (SE) 2,121 8.5 74.4°
Maximum altitude 15:01:09 16° 103° (ESE) 1,815 8.1 74.1°
Drops below altitude 10° 15:04:13 10° 66° (ENE) 2,271 8.4 73.8°
Sets 15:07:35 0° 46° (NE) 3,286 9.1 73.5°
